Skip Page Navigation
NASA JPL Caltech
NASA Logo - Jet Propulsion Laboratory + View the NASA Portal
+ Near-Earth Object (NEO) Program
Search JPL
JPL Home Earth Solar System Stars & Galaxies Technology
JPL Solar System Dynamics
BODIES ORBITS EPHEMERIDES TOOLS PHYSICAL DATA DISCOVERY FAQ SITE MAP
JPL Small-Body Database Browser
Search: [ help ]  
(2001 SY269)
Classification: Apollo [NEO, PHA]          SPK-ID: 3082930
Ephemeris | Orbit Diagram | Orbital Elements | Physical Parameters | Close-Approach Data ]

[ hide orbit diagram ]
Orbit Diagram
Note: Make sure you have Java enabled on your browser to see the applet. This applet is provided as a 3D orbit visualization tool. The applet was implemented using 2-body methods, and hence should not be used for determining accurate long-term trajectories (over several years or decades) or planetary encounter circumstances. For accurate long-term ephemerides, please instead use our Horizons system.
Orbit Viewer

Additional Notes: the orbits shown in the applet are color coded. The planets are white lines, and the asteroid/comet is a blue line. The bright white line indicates the portion of the orbit that is above the ecliptic plane, and the darker portion is below the ecliptic plane. Likewise for the asteroid/comet orbit, the light blue indicates the portion above the ecliptic plane, and the dark blue the portion below the ecliptic plane.

Orbit Viewer applet originally written and kindly provided by Osamu Ajiki (AstroArts), and further modified by Ron Baalke (JPL).


Orbital Elements at Epoch 2456400.5 (2013-Apr-18.0) TDB
Reference: JPL 9 (heliocentric ecliptic J2000)
 Element Value Uncertainty (1-sigma)   Units 
e .597494022990568 1.5853e-07  
a 1.679378585592809 6.4635e-08 AU
q .6759599183627517 2.4061e-07 AU
i 1.866329365750612 4.0725e-05 deg
node 232.3300644103802 0.0012351 deg
peri 223.5961099201405 0.0012372 deg
M 85.46484376705386 0.0001325 deg
tp 2456211.785032896192
(2012-Oct-11.28503290)
0.00028171 JED
period 794.9161920022159
2.18
4.5892e-05
1.256e-07
d
yr
n .4528779305567303 2.6145e-08 deg/d
Q 2.682797252822867 1.0325e-07 AU
  Orbit Determination Parameters
   # obs. used (total)      118  
   data-arc span      918 days (2.51 yr)  
   first obs. used      2001-09-25  
   last obs. used      2004-03-31  
   planetary ephem.      DE405  
   SB-pert. ephem.      SB405-CPV-2  
   condition code      0  
   fit RMS      .58255  
   data source      ORB  
   producer      Otto Matic  
   solution date      2011-Sep-14 19:42:28  

Additional Information
 Earth MOID = .0203139 AU 
 T_jup = 4.009 
[ show covariance matrix ]

Ephemeris | Orbit Diagram | Orbital Elements | Physical Parameters | Close-Approach Data ]

Physical Parameter Table
Parameter Symbol Value Units Sigma Reference Notes
absolute magnitude H 21.21 mag .6185 9 autocmod 2.5a

[ show close-approach data ]
Ephemeris | Orbit Diagram | Orbital Elements | Physical Parameters | Close-Approach Data ]
ABOUT SSD CREDITS/AWARDS PRIVACY/COPYRIGHT GLOSSARY LINKS
FirstGov 2013-May-24 06:24 UT
(server date/time)  
NASA Home Page
Site Manager:   Donald K. Yeomans
Webmaster  Alan B. Chamberlin